This is the latest recevied weather packets stored in our database for station/object CW79215. If no packets are shown the sender has not sent any weather packets the latest 10 day(s).
| Time | Temp. | Humidity | Pressure | Rain* | Wind** | Luminosity | Snow |
|---|---|---|---|---|---|---|---|
| 1788225633 | 14.44° C | 83% | 1032 hPa | - | - | - | - |
| 1788224733 | 14.44° C | 82% | 1032 hPa | - | - | - | - |
| 1788223832 | 15° C | 80% | 1031.8 hPa | - | - | - | - |
| 1788222932 | 15° C | 78% | 1031.9 hPa | - | - | - | - |
| 1788222032 | 14.44° C | 80% | 1031.8 hPa | - | - | - | - |
| 1788221132 | 13.89° C | 82% | 1031.9 hPa | - | - | - | - |
| 1788220232 | 13.89° C | 82% | 1031.9 hPa | - | - | - | - |
| 1788219332 | 13.89° C | 83% | 1031.8 hPa | - | - | - | - |
| 1788218432 | 13.89° C | 82% | 1031.7 hPa | - | - | - | - |
| 1788217532 | 13.89° C | 83% | 1031.6 hPa | - | - | - | - |
| 1788216632 | 14.44° C | 83% | 1031.8 hPa | - | - | - | - |
| 1788215732 | 14.44° C | 84% | 1031.8 hPa | - | - | - | - |
| 1788214832 | 14.44° C | 83% | 1031.8 hPa | - | - | - | - |
| 1788213931 | 14.44° C | 84% | 1031.8 hPa | - | - | - | - |
| 1788213031 | 15° C | 83% | 1031.8 hPa | - | - | - | - |
| 1788212131 | 14.44° C | 83% | 1031.9 hPa | - | - | - | - |
| 1788211231 | 15.56° C | 82% | 1031.8 hPa | - | - | - | - |
| 1788210331 | 15° C | 82% | 1031.7 hPa | - | - | - | - |
| 1788209430 | 15° C | 83% | 1031.5 hPa | - | - | - | - |
| 1788208533 | 15° C | 84% | 1031.3 hPa | - | - | - | - |
| 1788207633 | 15.56° C | 82% | 1031.2 hPa | - | - | - | - |
| 1788206733 | 16.11° C | 82% | 1031 hPa | - | - | - | - |
| 1788205833 | 15.56° C | 82% | 1030.9 hPa | - | - | - | - |
| 1788204932 | 16.11° C | 81% | 1030.8 hPa | - | - | - | - |
| 1788204032 | 16.67° C | 80% | 1030.8 hPa | - | - | - | - |
* Rain since midnight (hover to see other rain measurements)
** Current wind speed in m/s (hover to see current wind gust speed)